Probability
9 9 7 6 4 4 5 6 6 6 7 8 9 10 11 13 14 16 17 17 15 12 10 10 10 10 10 10 8 6 4 4 4 5 5 4 4 5 6 4 2 2 3
11 10 8 6 4 3 4 5 6 6 7 7 8 9 10 11 12 14 15 15 15 15 13 12 11 11 11 9 5 3 3 3 4 5 5 4 3 3 4 4 4 5 7
14 11 8 5 4 3 3 4 5 6 6 7 8 8 9 9 10 11 13 14 14 13 12 11 10 10 9 7 3 1 1 2 3 5 7 6 4 3 3 4 5 7 10
13 11 9 6 4 3 2 3 4 5 6 6 7 7 7 8 9 10 11 12 10 8 6 6 7 7 8 6 3 1 1 1 2 5 7 7 6 4 3 3 4 6 7
12 12 10 8 5 4 3 3 4 4 4 4 4 5 6 7 8 9 10 9 7 6 4 3 4 6 7 6 3 1 1 2 2 3 5 6 6 5 3 2 3 4 4
15 14 11 9 8 6 5 4 4 4 3 2 2 3 5 7 8 8 8 6 5 5 5 4 4 4 5 5 3 1 1 2 3 3 3 4 5 4 3 2 2 2 2
18 15 12 11 10 8 7 6 6 5 4 2 2 3 5 7 7 7 6 5 5 5 5 5 4 4 4 4 3 2 1 2 2 3 3 3 4 3 3 1 1 1 1
17 15 13 12 9 7 6 6 6 6 5 2 1 2 3 4 5 5 5 4 4 5 5 5 5 5 4 3 3 2 1 1 1 1 2 3 3 3 3 2 1 1 1
13 13 13 12 8 5 5 5 6 6 5 3 2 2 3 3 3 3 3 4 4 4 4 3 4 4 2 1 1 1 0 0 0 1 1 2 2 2 2 2 2 2 1
8 10 11 9 6 4 4 4 5 5 4 3 3 3 3 2 1 2 3 3 3 3 3 2 2 1 0 0 0 0 0 0 1 2 2 2 1 1 1 1 1 1 0
5 6 6 5 3 2 2 2 3 4 3 3 3 3 2 1 1 1 2 3 3 3 2 2 1 0 0 0 0 0 0 0 1 2 2 1 1 0 0 0 0 0 1
2 2 2 2 1 0 1 1 1 1 1 2 2 2 1 0 0 1 1 2 2 2 1 1 1 0 0 0 0 0 0 0 1 1 0 0 0 0 0 0 0 0 1
0 0 1 1 0 0 0 0 0 0 0 0 0 0 0 0 0 0 0 1 1 1 0 0 0 0 0 0 0 0 0 0 0 0 0 0 0 0 0 0 0 1 2
0 0 0 0 0 0 0 0 0 0 0 0 0 0 0 0 0 0 0 0 0 0 0 0 0 0 0 0 0 0 0 0 0 0 0 0 0 0 0 0 0 2 4
0 0 0 0 0 0 0 0 0 0 0 0 0 0 0 0 0 0 0 0 0 0 0 0 0 0 0 0 0 0 0 0 0 0 0 0 0 0 0 0 0 2 3
0 0 0 0 0 0 0 0 0 0 0 0 0 0 0 0 0 0 0 0 0 0 0 0 0 0 0 0 0 0 0 0 0 0 0 0 0 0 0 0 0 0 1
0 0 0 0 0 0 0 0 0 0 0 0 0 0 0 0 0 0 0 0 0 0 0 0 0 0 0 0 0 0 0 0 0 0 0 0 0 0 0 0 0 0 0
0 0 0 0 0 0 0 0 0 0 0 0 0 0 0 0 0 0 0 0 0 0 0 0 0 0 0 0 0 0 0 0 0 0 0 0 0 0 0 0 0 0 0
0 0 0 0 0 0 0 0 0 0 0 0 0 0 0 0 0 0 0 0 0 0 0 0 0 0 0 0 0 0 0 0 0 0 0 0 0 0 0 0 0 0 0
0 0 0 0 0 0 0 0 0 0 0 0 0 0 0 0 0 0 0 0 0 0 0 0 0 0 0 0 0 0 0 0 0 0 0 0 0 0 0 0 0 0 0
0 0 0 0 0 0 0 0 0 0 0 0 0 0 0 0 0 0 0 0 0 0 0 0 0 0 0 0 0 0 0 0 0 0 0 0 0 0 0 0 0 0 0
0 0 0 0 0 0 0 0 0 0 0 0 0 0 0 0 0 0 0 0 0 0 0 0 0 0 0 0 0 0 0 0 0 0 0 0 0 0 0 0 0 0 0
0 0 0 0 0 0 0 0 0 0 0 0 0 0 0 0 0 0 0 0 0 0 0 0 0 0 0 0 0 0 0 0 0 0 0 0 0 0 0 0 0 0 0
0 0 0 0 0 0 0 0 0 0 0 0 0 0 0 0 0 0 0 0 0 0 0 0 0 0 0 0 0 0 0 0 0 0 0 0 0 0 0 0 0 0 0
0 0 0 0 0 0 0 0 0 0 0 0 0 0 0 0 0 0 0 0 0 0 0 0 0 0 0 0 0 0 0 0 0 0 0 0 0 0 0 0 0 0 0
0 0 0 0 0 0 0 0 0 0 0 0 0 0 0 0 0 0 0 0 0 0 0 0 0 0 0 0 0 0 0 0 0 0 0 0 0 0 0 0 0 0 0
Wind_Speed
7 7 6 5 5 5 4 4 4 4 2 1 2 2 2 2 3 4 5 5 5 4 3 3 2 3 2 3 4 4 3 3 3 4 4 4 3 3 2 2 2 2 2
8 6 5 5 5 5 4 4 4 4 2 2 2 2 2 2 3 3 4 5 4 4 3 3 3 3 2 3 4 4 4 3 2 4 4 4 3 1 1 1 1 2 1
9 8 6 5 5 5 4 4 4 4 3 2 2 3 3 2 2 3 3 4 4 5 4 4 4 4 3 3 4 4 4 4 3 3 3 4 3 2 1 0 0 1 1
10 8 7 6 5 5 5 5 5 4 4 3 3 3 2 3 3 2 3 4 4 5 5 5 4 4 4 3 3 4 4 4 4 2 2 3 3 3 2 1 0 1 1
11 9 8 6 6 5 5 5 5 5 4 4 4 3 3 3 2 3 4 3 4 4 5 5 4 4 4 4 4 4 4 3 4 4 3 3 3 4 4 3 2 1 1
11 10 9 8 7 6 5 5 5 5 5 4 5 5 5 4 4 3 3 2 3 4 6 5 4 4 4 4 4 4 4 4 4 4 3 3 3 3 3 3 3 2 1
11 11 10 9 8 7 6 5 6 5 5 5 5 5 4 3 4 3 3 3 3 3 5 5 5 4 4 4 4 3 4 4 4 4 4 3 3 3 3 3 3 3 2
10 10 10 9 8 7 6 5 6 5 5 5 5 4 3 2 3 4 3 3 3 4 5 5 5 5 5 5 4 3 3 3 4 4 4 4 3 3 3 3 3 3 2
10 9 9 8 8 7 6 6 6 5 5 5 5 5 4 4 4 3 3 4 4 4 4 5 5 5 5 5 5 3 4 4 4 4 4 4 3 3 3 3 3 4 3
9 9 8 8 7 7 6 6 6 5 5 5 4 4 4 4 4 3 5 4 4 5 4 5 5 5 5 5 5 4 4 4 3 3 4 4 3 2 2 2 3 3 3
10 9 8 7 7 7 6 6 6 5 5 5 4 4 4 4 3 3 4 4 4 4 4 4 5 5 5 5 4 5 5 5 5 4 4 4 4 3 2 2 2 2 1
9 9 9 8 7 6 6 6 5 5 4 4 4 4 3 3 3 4 4 4 4 4 4 4 5 5 5 5 5 5 5 5 5 5 5 5 3 3 3 2 1 0 1
10 9 8 7 7 6 5 5 4 4 4 4 3 3 3 3 3 3 3 3 4 4 5 5 5 5 5 5 5 5 5 5 5 5 6 5 5 4 3 2 1 1 1
9 9 8 7 7 6 5 5 4 4 4 3 3 3 3 3 3 3 3 3 4 4 4 4 4 5 5 6 5 5 5 5 5 5 5 5 5 4 3 2 1 1 2
9 9 8 7 7 7 6 5 5 4 3 3 3 3 3 3 3 3 3 3 3 4 4 4 4 4 5 6 7 6 5 5 5 5 5 5 5 6 5 3 1 1 2
9 8 8 8 7 7 6 5 4 4 4 3 3 3 3 3 3 3 3 3 3 3 4 4 4 5 5 7 8 7 5 5 5 5 4 4 3 3 2 3 3 2 0
9 9 8 8 7 7 6 5 5 4 4 4 3 3 3 4 3 3 3 3 4 4 4 4 5 5 6 7 7 8 5 5 5 5 5 5 4 3 2 3 3 2 1
9 9 9 9 8 8 7 5 5 5 4 4 4 3 3 3 3 3 4 4 4 4 4 4 4 5 6 6 7 8 4 5 5 5 5 4 5 6 4 2 3 3 3
9 9 9 9 8 8 7 6 5 5 4 4 4 3 2 2 2 3 3 3 3 3 3 4 4 5 5 6 7 9 3 4 5 5 6 6 5 7 7 2 3 4 4
9 9 9 9 8 8 7 6 5 5 5 4 3 3 2 2 2 3 2 3 2 2 3 4 4 4 5 6 7 9 3 4 3 4 5 7 6 7 7 2 2 3 3
11 10 9 8 8 8 7 6 6 5 4 4 3 3 3 2 2 2 2 2 2 3 3 3 3 3 4 4 6 8 4 4 4 3 4 5 6 6 6 3 3 2 1
11 10 9 8 8 7 7 7 6 5 4 3 3 3 3 2 3 2 2 1 1 1 1 1 1 2 3 4 4 5 5 7 3 3 4 4 5 5 4 3 3 1 3
10 9 9 9 7 7 6 7 6 5 5 4 3 3 3 2 1 1 1 0 0 0 1 1 1 2 2 2 1 1 2 4 3 3 4 4 4 3 1 2 1 3 1
10 9 9 9 8 7 6 6 5 5 4 4 3 2 2 2 2 0 0 1 1 2 2 2 2 2 1 2 1 0 2 3 3 1 2 5 5 3 0 2 3 1 2
9 9 8 8 8 7 7 6 5 5 4 3 3 2 2 2 1 1 2 3 4 4 4 4 3 3 2 4 6 6 5 5 5 5 2 1 0 1 1 1 1 1 2
9 9 9 8 8 8 7 6 6 5 4 4 3 2 2 2 2 2 3 1 1 1 2 4 5 3 2 3 4 4 5 5 6 6 2 1 1 1 1 1 1 1 0
Wind_Direction
133 124 118 109 102 99 98 94 93 95 97 109 120 105 96 84 74 66 51 42 33 23 9 355 11 351 356 339 323 307 291 285 299 283 277 263 246 250 258 260 273 277 283
144 136 129 125 117 111 110 103 96 95 95 98 99 89 89 82 74 68 57 37 33 18 17 1 359 8 342 344 338 326 312 304 301 296 289 275 249 203 238 248 252 291 300
160 152 147 138 127 117 109 98 91 93 88 104 120 125 133 129 95 73 62 39 28 28 21 14 8 358 348 1 343 335 323 313 307 306 299 297 303 324 238 264 360 357 356
165 158 152 140 126 117 110 102 94 86 82 91 86 84 76 79 68 49 54 49 42 29 26 16 11 359 356 1 343 358 324 313 307 299 289 295 305 287 288 257 71 29 16
164 157 150 138 129 123 116 109 102 91 79 73 82 83 75 77 75 62 62 45 55 40 31 22 11 0 358 3 351 344 332 320 316 310 306 295 276 265 271 281 298 338 8
160 156 148 142 135 128 118 114 108 96 86 76 71 70 71 62 55 48 48 48 57 44 34 23 12 1 3 0 352 343 335 334 328 315 304 289 282 282 274 274 282 299 340
159 158 153 147 140 129 118 113 106 96 87 81 75 72 70 72 61 37 53 30 38 39 31 15 6 1 357 350 347 342 339 332 327 317 311 300 280 279 275 268 274 274 274
154 156 152 147 139 130 124 114 103 94 86 82 77 72 62 56 61 43 28 34 26 31 18 9 6 1 356 354 350 342 346 339 325 321 315 299 292 281 269 257 263 266 254
148 148 146 142 136 128 121 111 104 96 86 83 89 82 68 54 55 56 38 41 32 27 19 11 11 10 7 0 346 358 350 341 327 325 319 308 306 290 284 268 262 260 257
143 140 137 134 129 126 121 112 105 97 93 94 89 82 73 64 56 47 48 36 27 22 11 11 13 13 11 5 352 354 4 347 343 341 341 328 319 309 285 270 264 263 256
146 140 133 132 130 129 126 119 110 102 94 86 82 75 65 59 50 46 44 34 23 15 12 14 12 12 12 7 4 6 2 359 360 356 353 345 339 328 315 291 273 260 222
137 134 133 134 134 130 123 115 110 101 92 85 79 78 71 62 51 48 36 29 22 15 18 16 14 15 17 14 13 10 9 7 6 6 4 359 357 352 339 325 308 165 156
137 138 141 143 141 136 127 118 116 105 98 94 89 82 70 61 50 42 31 25 24 22 21 24 22 17 17 19 17 12 11 13 13 10 8 7 6 5 2 359 35 110 134
144 146 148 149 146 141 134 130 124 113 104 100 92 77 58 49 45 42 38 30 26 23 24 29 25 17 17 18 16 17 17 17 20 19 15 11 9 7 3 21 51 109 135
151 154 156 150 147 142 136 134 128 124 122 115 98 84 68 53 45 40 39 38 32 28 26 28 30 27 31 20 7 8 21 21 22 24 23 28 28 19 4 4 29 117 155
155 154 156 151 150 146 144 142 136 135 131 121 99 80 70 58 48 40 39 41 37 29 27 30 31 36 36 19 1 346 14 21 21 20 17 32 48 55 54 47 30 10 322
154 156 155 150 147 146 145 146 138 135 126 115 95 81 66 56 42 40 43 39 37 36 38 34 36 45 41 17 360 346 352 25 25 17 12 19 30 15 59 111 140 109 81
151 151 146 143 144 141 141 142 139 133 126 114 101 89 71 60 44 46 49 45 42 40 41 40 42 45 44 21 357 334 348 28 29 25 20 19 20 14 1 71 85 88 84
144 142 141 141 140 140 144 147 146 137 127 115 106 97 86 69 62 62 58 51 47 47 47 50 36 35 42 21 353 331 16 43 43 38 25 15 31 7 338 51 93 98 106
133 135 138 139 140 143 148 150 145 134 123 117 110 101 87 66 61 64 61 57 53 48 45 51 34 29 31 27 358 335 4 36 41 55 57 43 21 5 350 26 79 91 90
133 138 141 142 142 146 151 149 142 132 127 126 122 112 99 92 81 76 70 60 52 45 36 43 43 45 37 47 23 359 355 7 14 32 43 45 25 16 5 360 55 55 25
138 143 144 142 145 154 156 149 138 135 140 136 124 116 113 97 91 85 77 63 39 76 61 47 21 82 76 41 38 14 1 339 1 17 31 45 20 12 6 29 51 331 283
143 148 147 144 148 155 158 148 143 152 155 151 135 125 123 118 107 112 95 137 160 6 53 44 31 53 73 101 119 312 315 322 338 18 16 339 311 282 177 134 246 259 241
149 153 154 152 151 154 155 150 151 160 162 150 140 143 147 143 127 190 117 34 36 32 30 34 26 36 40 33 38 178 197 216 222 238 208 232 252 247 168 192 208 218 40
153 159 160 158 154 155 154 157 158 162 158 150 151 159 154 129 141 106 26 360 32 21 344 359 3 358 12 29 358 335 349 355 12 334 282 263 175 140 115 96 78 102 145
154 159 163 161 156 158 158 159 160 162 163 164 172 175 166 156 174 156 151 144 290 247 262 289 309 343 13 344 331 327 324 322 325 308 310 358 7 21 53 68 96 128 117